Wind_Speed
16 14 15 19 21 19 18 22 21 30 25 22 23 22 22 21 19 21 23 20 19 21 23 27 28 28 27 25 21 20 22 24 26 28 30 34 37 39 42 44 46 50 51 49
16 18 20 25 28 28 30 31 32 34 41 33 30 30 32 28 22 23 20 17 20 22 24 27 28 28 26 22 18 20 23 25 26 29 32 35 38 41 43 44 47 49 48 48
17 20 17 21 28 26 27 30 28 34 39 35 32 28 23 19 20 19 17 19 22 23 26 27 28 28 26 20 19 21 24 26 28 30 33 36 40 42 44 45 47 47 46 48
10 13 3 21 22 20 19 21 21 22 16 13 17 15 16 14 16 19 19 21 23 24 26 27 29 28 23 20 22 24 26 28 30 32 35 38 41 43 44 46 46 45 46 47
8 12 19 31 24 25 27 26 19 20 18 15 13 12 14 17 18 19 21 21 22 23 25 27 28 25 21 22 23 25 27 29 31 34 36 40 42 43 45 45 45 44 46 46
16 5 5 4 3 8 15 23 24 20 20 15 12 16 14 16 18 19 20 21 22 24 26 27 26 22 21 22 24 26 28 30 32 35 37 40 43 44 45 45 45 45 45 45
30 23 20 26 25 22 19 12 5 7 12 12 11 11 13 16 19 25 21 22 23 26 26 27 24 20 21 23 25 27 28 30 33 35 38 40 43 45 45 44 44 44 45 44
30 22 21 22 14 13 11 17 20 19 14 11 12 13 17 21 21 24 25 24 24 27 27 27 22 20 22 23 26 27 28 31 33 35 37 40 42 44 44 44 43 44 44 43
22 17 18 10 11 13 17 17 16 13 13 14 15 16 19 22 27 29 24 23 25 26 27 25 21 20 23 25 26 28 29 31 32 34 36 39 41 43 43 43 44 44 45 45
32 35 32 27 21 25 24 21 19 17 15 17 19 21 22 25 29 27 27 30 28 27 27 25 22 22 24 26 27 28 30 32 32 33 35 38 41 42 43 44 44 44 45 45
39 36 29 25 29 29 23 23 22 20 23 23 24 27 28 31 29 27 30 31 31 27 25 24 23 24 25 26 28 29 30 32 33 33 34 36 39 41 40 42 45 46 46 46
37 31 29 27 29 29 27 24 26 26 27 28 30 30 30 32 26 28 32 31 28 26 26 26 25 25 26 27 28 30 30 32 33 33 34 36 38 36 40 41 42 42 42 43
33 31 31 28 29 29 27 23 26 30 35 30 32 32 31 30 33 33 30 28 27 26 26 28 27 27 28 28 29 30 31 32 33 33 34 35 37 39 37 34 38 40 41 40
35 31 32 29 32 34 35 33 32 33 33 32 33 38 34 31 33 32 31 26 25 23 25 27 27 28 29 29 30 31 31 31 32 33 33 35 37 38 39 40 39 37 38 39
32 30 33 35 36 37 35 36 37 37 38 40 40 39 35 30 30 31 27 24 23 26 26 27 28 29 29 30 30 31 31 31 32 32 33 35 36 37 37 38 39 40 39 37
24 27 30 35 34 31 31 34 37 39 39 34 30 29 28 30 29 26 26 26 27 27 26 28 29 28 29 29 30 31 30 31 31 31 33 34 35 35 36 37 38 39 39 39
38 37 38 38 40 46 46 44 41 39 38 34 32 30 31 31 29 27 25 26 29 27 29 29 28 27 28 29 30 30 30 30 31 30 32 33 34 34 36 37 39 39 39 39
37 43 43 43 43 43 42 39 37 37 37 32 32 31 33 32 29 26 26 31 27 28 28 27 26 27 28 29 29 29 29 30 30 30 32 32 33 34 35 37 39 39 38 37
22 25 26 26 27 28 27 26 24 24 22 21 21 25 25 27 31 29 28 29 28 30 26 25 25 26 27 28 28 28 28 29 29 30 31 31 32 33 35 37 38 39 39 39
11 15 17 21 23 24 25 25 25 26 27 29 30 31 28 27 24 24 26 26 30 27 25 24 25 26 26 27 27 27 28 28 28 30 31 30 31 32 34 36 38 39 39 39
19 20 23 23 20 19 19 20 22 23 26 29 30 27 26 23 20 27 25 28 25 24 23 24 25 26 26 26 26 27 27 27 28 30 30 30 30 32 34 36 37 38 39 39
12 19 20 19 19 20 23 23 22 24 26 26 22 23 24 22 19 22 26 24 24 20 22 24 24 25 25 25 26 27 26 26 28 30 30 29 30 31 33 35 37 38 39 40
14 16 16 19 22 25 27 24 23 24 23 22 21 21 20 16 21 23 23 21 22 21 23 23 23 24 24 25 26 26 26 26 27 30 30 29 30 32 33 35 37 39 41 42
16 18 20 21 21 22 22 25 22 22 20 21 23 22 18 21 22 21 22 22 18 21 21 22 23 23 24 24 25 25 25 25 27 29 29 29 30 32 34 36 37 40 42 43
19 18 16 14 16 19 21 23 22 21 20 20 21 19 19 19 19 21 20 18 19 20 21 22 22 23 23 24 24 24 25 25 27 29 29 29 30 31 33 36 39 42 45 44
17 15 15 15 14 17 19 19 19 20 20 20 19 17 17 18 19 17 17 18 18 19 20 21 22 23 23 24 24 24 25 25 28 29 29 30 30 32 34 36 40 44 46 44
14 15 13 16 18 18 19 18 19 20 19 18 18 17 17 18 18 17 17 17 18 19 20 22 22 22 23 23 24 24 25 26 28 29 30 30 31 33 35 38 42 46 46 44
Wind_Direction
242 245 251 258 262 263 259 255 248 268 265 255 259 271 282 284 267 259 255 268 277 292 300 303 307 311 308 308 305 303 306 308 311 315 318 320 322 322 322 322 324 325 325 326
256 264 270 269 267 269 274 268 260 262 267 265 270 268 277 273 267 261 259 264 282 297 303 308 311 313 310 308 304 303 304 309 315 319 321 323 322 323 323 325 327 327 327 327
262 266 275 272 272 272 270 269 271 262 273 273 273 269 265 266 262 253 254 275 295 304 307 308 311 311 310 306 305 307 310 315 319 321 323 324 324 324 326 328 329 328 328 327
255 271 290 264 263 264 267 271 269 270 277 273 273 265 260 244 236 247 271 293 303 307 306 308 309 307 306 305 309 311 313 317 320 323 326 326 325 326 328 329 329 329 330 329
227 235 275 275 267 261 256 263 266 266 264 272 266 251 242 238 247 269 292 305 310 308 307 308 305 304 302 304 309 310 314 318 323 325 326 326 326 327 328 329 330 331 331 329
234 239 246 264 281 269 268 269 262 262 261 269 260 238 248 246 264 287 305 312 310 309 308 306 303 299 297 303 306 309 315 321 323 324 327 328 327 328 329 331 332 333 333 329
240 248 261 267 271 273 265 271 274 288 269 254 257 262 267 273 283 295 307 316 312 308 308 305 301 293 296 303 305 309 316 320 322 324 327 328 328 329 329 331 331 333 333 330
238 244 259 275 263 248 293 276 272 275 279 266 273 280 288 289 301 303 301 315 313 308 306 301 294 289 297 301 304 309 317 319 320 324 327 328 329 329 329 330 331 333 333 331
235 240 264 265 259 283 299 297 288 280 264 269 268 280 306 291 306 308 299 322 314 309 304 299 291 290 296 298 304 311 316 317 319 324 327 328 329 329 329 330 331 333 333 333
249 263 265 264 264 279 290 286 279 283 263 265 273 282 298 297 305 303 300 309 312 307 310 301 290 289 295 300 306 311 314 316 319 323 327 328 330 330 330 331 332 333 334 334
262 265 259 257 265 277 278 277 269 275 280 277 279 284 289 294 303 299 303 306 305 294 304 300 289 290 296 301 307 310 313 315 318 323 326 328 330 330 332 333 333 334 335 335
257 262 263 268 268 271 276 272 280 271 265 263 283 277 285 294 291 293 301 305 295 294 300 298 291 291 297 302 306 308 312 314 318 322 326 328 330 333 334 334 333 333 333 334
256 261 266 267 273 278 281 278 272 266 274 286 284 279 285 291 297 294 300 303 291 294 300 296 291 291 297 301 304 307 312 314 317 322 326 329 330 332 335 336 334 332 333 333
253 258 261 259 268 272 275 274 269 271 274 278 279 280 281 288 288 292 298 297 289 294 301 298 292 291 297 300 302 307 311 313 316 322 326 329 331 334 336 337 336 335 333 334
262 266 266 262 264 265 267 272 276 278 279 277 277 275 280 279 282 289 292 289 289 290 296 296 292 291 295 297 301 307 310 313 317 323 326 329 331 334 337 337 335 334 334 334
264 260 265 260 261 268 273 283 283 283 283 284 282 277 276 279 281 286 286 286 288 291 292 294 287 288 292 296 301 305 309 313 317 322 326 329 330 334 336 336 335 334 335 335
283 274 276 270 268 273 277 279 279 275 274 275 280 279 281 279 277 283 282 285 285 296 296 287 282 287 291 295 301 305 309 312 316 323 324 327 330 334 336 337 335 336 335 336
275 271 269 269 273 276 276 277 276 277 281 283 277 276 272 271 273 277 280 282 277 297 293 281 282 288 290 294 301 304 309 312 318 321 324 327 331 334 335 337 335 335 335 336
256 254 254 262 268 271 273 275 280 283 283 276 268 269 274 268 267 268 275 282 289 295 283 276 283 287 289 296 300 304 308 311 318 318 323 327 330 333 336 336 335 334 335 335
246 247 255 262 265 270 275 278 278 275 272 267 263 264 270 277 260 259 268 278 291 285 278 277 283 285 290 296 300 305 308 312 317 318 323 326 330 333 335 335 334 335 336 335
248 251 266 277 276 270 267 269 270 276 278 274 272 265 265 260 250 260 264 285 284 273 272 278 282 285 291 296 301 304 307 313 316 318 323 325 329 333 335 335 335 336 336 335
273 268 270 268 264 253 255 266 280 281 284 277 261 257 253 248 252 262 273 278 272 269 271 277 281 286 292 297 301 304 308 314 315 320 322 323 329 333 334 334 335 336 336 336
276 259 256 250 253 257 260 269 280 288 285 268 256 250 250 250 256 270 277 263 257 263 272 277 281 287 293 297 301 304 310 314 315 320 321 324 330 332 333 334 334 335 336 336
269 265 267 271 272 272 271 280 281 289 282 264 253 252 246 255 266 271 260 262 259 267 273 278 283 288 294 299 300 304 311 312 315 320 321 324 328 331 333 333 334 335 335 334
265 276 279 281 285 286 285 284 280 285 280 267 259 255 260 265 266 259 256 253 264 270 274 280 285 292 296 298 300 306 310 312 317 320 320 323 328 331 331 331 333 334 335 333
275 279 281 287 291 300 300 292 286 286 281 267 262 261 258 258 256 249 248 260 268 272 278 284 290 294 296 298 302 308 311 314 316 318 320 324 327 328 329 331 333 334 334 333
276 281 279 289 292 298 309 297 290 285 284 275 265 256 248 246 240 246 258 267 271 276 283 287 290 294 296 300 306 310 312 312 314 318 321 323 325 326 329 331 333 335 334 334
Height
3136 3137 3137 3138 3137 3137 3137 3138 3137 3135 3134 3137 3138 3138 3138 3138 3139 3139 3139 3140 3139 3137 3134 3130 3126 3122 3118 3114 3110 3106 3103 3099 3096 3091 3086 3082 3076 3070 3064 3057 3050 3042 3034 3027
3134 3133 3132 3131 3130 3131 3131 3130 3129 3129 3124 3129 3132 3131 3131 3132 3132 3133 3135 3135 3134 3132 3128 3123 3120 3116 3112 3108 3105 3102 3098 3094 3090 3085 3080 3075 3070 3064 3057 3050 3042 3034 3026 3019
3130 3128 3126 3124 3124 3124 3122 3120 3121 3119 3117 3122 3122 3123 3124 3125 3126 3129 3130 3129 3128 3125 3121 3117 3113 3109 3105 3102 3099 3096 3092 3087 3083 3079 3074 3068 3062 3056 3048 3041 3033 3026 3019 3011
3126 3126 3124 3116 3118 3116 3115 3114 3114 3112 3113 3115 3116 3116 3119 3121 3123 3124 3124 3123 3120 3118 3114 3110 3106 3102 3098 3095 3092 3089 3084 3081 3077 3072 3066 3061 3055 3048 3040 3033 3026 3018 3011 3003
3123 3122 3116 3112 3113 3114 3110 3107 3109 3109 3110 3111 3112 3113 3115 3117 3119 3119 3118 3115 3113 3111 3108 3104 3100 3095 3092 3089 3086 3082 3079 3075 3069 3065 3060 3054 3048 3041 3033 3026 3018 3011 3003 2995
3119 3120 3114 3108 3108 3108 3106 3102 3103 3105 3105 3106 3108 3109 3112 3113 3113 3113 3111 3109 3107 3104 3101 3097 3093 3089 3087 3083 3080 3076 3072 3067 3063 3058 3053 3047 3040 3033 3025 3017 3010 3002 2995 2987
3114 3113 3104 3103 3106 3107 3107 3105 3101 3101 3102 3104 3105 3108 3109 3109 3108 3107 3105 3102 3099 3097 3093 3090 3086 3084 3081 3078 3073 3070 3066 3061 3056 3051 3046 3040 3033 3025 3017 3011 3003 2995 2988 2980
3109 3108 3103 3099 3100 3101 3101 3099 3099 3100 3100 3101 3102 3102 3104 3104 3102 3101 3099 3096 3093 3089 3086 3083 3080 3078 3075 3071 3068 3064 3060 3055 3050 3045 3039 3033 3027 3019 3011 3003 2996 2988 2981 2974
3100 3094 3096 3096 3096 3096 3097 3096 3096 3096 3097 3097 3098 3099 3099 3097 3096 3094 3091 3089 3086 3084 3081 3077 3074 3072 3069 3065 3062 3058 3053 3049 3044 3038 3032 3026 3020 3013 3005 2997 2988 2981 2973 2966
3092 3090 3092 3094 3093 3092 3092 3092 3092 3093 3093 3093 3093 3094 3093 3092 3090 3088 3086 3083 3080 3077 3074 3071 3068 3066 3062 3059 3055 3051 3047 3043 3038 3032 3025 3020 3013 3006 2997 2988 2981 2973 2966 2958
3082 3085 3086 3087 3087 3087 3086 3087 3088 3088 3088 3088 3087 3087 3086 3085 3083 3081 3078 3076 3073 3070 3068 3065 3062 3059 3055 3052 3049 3045 3040 3036 3031 3025 3019 3014 3007 3000 2992 2982 2972 2965 2957 2950
3075 3079 3079 3080 3081 3080 3080 3081 3081 3080 3081 3081 3081 3080 3079 3078 3076 3074 3071 3068 3064 3062 3060 3056 3054 3051 3048 3045 3042 3038 3033 3029 3024 3018 3012 3006 3001 2996 2985 2977 2969 2961 2954 2945
3070 3073 3073 3073 3074 3073 3072 3074 3074 3074 3071 3073 3074 3072 3070 3070 3068 3066 3063 3060 3057 3055 3052 3049 3046 3043 3041 3038 3035 3031 3026 3022 3017 3011 3006 3000 2994 2987 2981 2976 2965 2957 2949 2941
3063 3066 3066 3068 3067 3066 3066 3065 3065 3066 3066 3066 3066 3063 3062 3061 3059 3057 3054 3052 3049 3047 3045 3041 3038 3036 3033 3031 3028 3024 3019 3015 3010 3004 2999 2993 2987 2980 2972 2964 2959 2954 2945 2936
3056 3058 3057 3058 3057 3057 3056 3054 3055 3055 3056 3055 3054 3054 3053 3051 3050 3048 3045 3044 3042 3039 3037 3033 3031 3029 3026 3024 3020 3017 3012 3008 3003 2997 2992 2986 2981 2973 2966 2960 2953 2946 2939 2932
3050 3051 3049 3048 3048 3048 3047 3046 3045 3044 3042 3042 3042 3042 3043 3042 3040 3039 3037 3035 3033 3031 3028 3026 3024 3022 3020 3017 3013 3010 3005 3001 2997 2991 2986 2980 2974 2967 2961 2954 2948 2941 2933 2924
3037 3039 3041 3039 3039 3037 3036 3035 3034 3033 3032 3031 3033 3033 3033 3032 3031 3029 3028 3027 3024 3022 3020 3019 3017 3015 3013 3010 3007 3003 2999 2995 2990 2984 2980 2974 2968 2961 2954 2948 2942 2935 2927 2919
3023 3024 3025 3025 3023 3024 3023 3023 3022 3021 3021 3023 3022 3021 3021 3021 3021 3021 3020 3018 3016 3014 3013 3011 3010 3008 3006 3003 3000 2996 2992 2988 2983 2978 2973 2968 2961 2955 2948 2942 2936 2929 2923 2915
3010 3010 3012 3013 3014 3013 3013 3013 3012 3012 3012 3011 3011 3011 3011 3010 3011 3012 3011 3009 3007 3006 3005 3003 3003 3001 2998 2996 2993 2990 2986 2981 2977 2973 2967 2962 2955 2949 2942 2937 2931 2924 2916 2909
3004 3004 3005 3005 3006 3005 3005 3006 3005 3003 3003 3001 3001 3001 3001 3001 3000 3001 3001 3001 3000 2998 2997 2996 2996 2994 2992 2989 2986 2983 2979 2975 2971 2967 2961 2955 2949 2943 2937 2931 2925 2918 2911 2903
2997 2997 2998 2999 2998 2998 2997 2997 2995 2994 2993 2991 2990 2990 2992 2992 2992 2992 2993 2993 2992 2991 2990 2990 2989 2987 2985 2983 2980 2976 2973 2969 2965 2960 2954 2949 2943 2937 2931 2926 2919 2912 2905 2898
2993 2993 2993 2992 2991 2992 2991 2990 2988 2986 2984 2982 2981 2982 2982 2983 2985 2986 2986 2986 2984 2984 2984 2983 2982 2981 2978 2976 2973 2970 2967 2962 2958 2954 2948 2943 2937 2931 2925 2920 2914 2908 2901 2893
2988 2986 2985 2984 2984 2983 2983 2982 2980 2978 2976 2975 2975 2975 2976 2978 2979 2978 2979 2978 2978 2978 2978 2977 2976 2974 2972 2969 2967 2964 2960 2956 2952 2948 2942 2936 2930 2925 2919 2914 2908 2902 2895 2887
2981 2980 2979 2978 2977 2976 2975 2974 2973 2971 2969 2968 2968 2968 2970 2971 2971 2971 2971 2971 2972 2972 2971 2970 2969 2967 2965 2963 2960 2957 2953 2950 2946 2941 2936 2930 2924 2918 2913 2908 2902 2896 2889 2881
2975 2974 2973 2972 2972 2970 2968 2966 2965 2964 2963 2962 2962 2962 2963 2964 2965 2965 2965 2965 2965 2965 2964 2963 2962 2961 2959 2957 2954 2950 2947 2944 2940 2935 2930 2924 2919 2913 2908 2903 2896 2890 2882 2874
2969 2969 2968 2967 2966 2964 2962 2960 2959 2958 2956 2956 2955 2956 2957 2958 2958 2959 2959 2960 2960 2959 2958 2957 2956 2954 2952 2950 2947 2944 2941 2937 2934 2929 2924 2918 2913 2908 2903 2898 2891 2884 2876 2868
2964 2964 2963 2962 2960 2958 2956 2955 2953 2952 2951 2950 2950 2950 2951 2952 2952 2953 2954 2954 2954 2953 2952 2952 2950 2949 2946 2944 2941 2938 2935 2931 2927 2923 2918 2913 2908 2903 2897 2892 2885 2877 2869 2860